GFSSW_850_rhum_141.txt.gz
RH
75 76 78 74 61 51 35 18 6 2 2 1 1 1 1 1 1 6 22 24 21 4 7 13 12 12 10 10 8 7 16 20 17 13 9 7 11 8 7 6 5 6 6 6 6
82 80 81 80 73 60 43 26 11 3 2 1 1 1 1 1 1 6 20 18 7 6 8 11 12 11 9 8 8 9 17 14 11 8 9 8 7 7 7 6 6 6 5 6 6
88 90 85 83 80 73 54 31 19 7 3 2 2 1 2 2 11 24 18 13 3 2 4 13 13 12 10 8 7 8 12 9 8 8 7 8 8 7 8 9 7 6 6 6 6
88 87 92 90 85 80 71 45 23 12 10 3 2 2 2 3 28 21 12 4 2 5 15 14 12 11 12 12 8 9 8 8 9 8 8 8 7 8 7 8 7 7 7 7 8
99 96 96 98 93 87 82 65 33 15 15 11 3 2 3 32 22 16 14 7 7 14 16 15 14 14 16 14 9 10 9 9 10 10 9 7 8 9 8 8 7 7 7 7 7
99 100 98 98 97 95 89 81 49 24 16 14 3 3 6 42 16 14 13 6 13 18 16 17 18 18 16 15 17 12 14 13 13 12 10 10 9 8 6 6 7 8 8 12 33
98 99 100 96 100 100 91 89 70 36 21 8 3 4 8 6 16 16 12 17 20 18 18 19 20 20 19 19 16 15 20 19 14 11 12 9 9 10 8 8 9 21 33 34 37
98 100 99 99 99 99 99 95 87 52 26 8 6 7 12 18 16 18 21 21 19 19 20 20 21 22 22 18 20 17 16 19 13 10 9 9 14 11 11 11 33 39 40 41 44
94 89 100 95 100 100 98 94 98 59 22 8 10 28 29 23 22 18 16 21 20 20 21 24 22 22 21 28 32 25 25 21 15 9 10 11 13 13 12 30 40 45 49 50 43
57 66 70 91 100 100 95 98 100 90 26 21 20 47 34 26 21 16 19 21 19 19 22 23 26 31 30 31 35 25 21 17 14 10 11 16 16 18 36 42 48 52 56 55 54
59 58 68 90 97 100 100 100 89 77 58 49 36 24 16 19 17 19 20 20 19 20 26 23 37 39 28 22 19 18 18 17 16 12 15 16 17 40 40 46 51 56 62 66 66
54 56 58 59 98 100 100 99 80 72 73 48 42 39 26 18 20 19 17 20 21 29 24 28 35 26 20 18 18 19 22 24 19 15 17 18 22 43 41 46 52 58 66 70 74
60 60 61 85 95 100 100 98 87 68 66 64 54 37 32 20 18 17 16 19 21 28 29 32 27 22 23 24 21 18 23 24 22 20 19 20 35 43 42 46 52 60 71 75 80
58 67 86 97 98 98 100 95 81 52 94 62 53 38 29 19 20 17 16 17 19 23 22 26 18 20 23 23 19 25 19 22 24 29 39 26 49 44 47 54 55 64 76 82 84
47 73 93 100 95 98 87 96 82 74 97 40 43 34 31 20 17 18 16 18 23 24 23 38 26 28 32 26 20 29 25 28 30 36 38 37 51 55 56 67 67 69 81 84 86
46 71 96 99 99 97 92 89 67 97 92 47 31 25 23 20 19 14 17 18 19 24 21 27 20 23 26 21 23 22 29 34 36 43 78 44 46 74 74 76 73 73 85 88 90
62 76 96 98 99 95 85 62 97 98 38 42 34 28 24 26 24 20 24 28 34 40 38 26 26 19 17 28 26 28 40 70 67 78 72 31 57 73 68 69 75 79 89 94 94
82 83 94 91 99 97 79 92 99 60 52 32 27 29 31 27 27 24 25 34 26 26 26 34 48 22 26 36 33 36 40 63 65 78 70 40 78 77 59 66 76 79 89 95 98
86 99 97 98 100 94 82 97 69 57 44 42 28 35 32 27 35 28 36 34 28 24 39 32 34 21 25 22 26 42 55 40 50 50 79 73 72 63 59 63 67 78 88 93 99
97 100 97 99 100 90 94 81 59 50 39 40 49 35 45 32 34 49 41 27 28 22 26 32 43 29 23 17 21 32 30 50 63 87 72 76 85 91 81 74 68 82 88 92 98
100 99 97 100 100 99 95 85 55 49 49 52 52 43 34 34 30 58 44 31 24 23 21 26 34 33 28 32 30 37 48 48 51 62 79 91 97 88 79 74 76 73 78 85 97
100 99 100 100 96 92 95 62 52 50 46 45 61 56 45 34 32 42 40 35 23 23 28 34 43 45 29 23 22 33 51 46 79 65 75 85 97 74 80 75 76 84 85 90 92
98 99 100 100 94 97 79 69 55 49 50 54 47 39 39 40 45 40 37 29 22 28 39 40 53 69 45 32 26 32 40 40 51 58 71 92 96 88 91 85 88 87 83 80 84
99 99 100 100 88 74 81 75 68 52 46 39 41 33 41 46 44 45 43 36 24 43 41 38 50 66 76 68 59 56 43 43 50 81 86 93 96 97 97 97 99 80 79 78 82
100 100 91 96 99 79 64 73 67 57 42 41 46 42 48 61 58 53 45 39 32 39 40 53 65 46 40 43 47 46 47 57 56 57 73 94 89 88 97 86 76 66 70 73 79
100 96 80 78 99 86 72 75 65 58 39 42 46 41 45 57 56 46 50 46 43 46 49 48 66 47 47 35 63 58 44 53 55 57 74 86 80 67 64 60 62 63 67 73 80
100 78 63 74 86 95 80 68 67 46 36 31 35 42 43 37 25 31 34 31 36 53 58 61 68 55 58 55 70 76 73 69 72 72 72 82 85 67 58 59 66 67 69 75 83

GFSSW_850_rhum_147.txt.gz
RH
79 76 76 74 75 72 68 61 49 35 22 12 6 3 2 1 1 1 2 17 14 6 4 8 11 10 10 10 10 9 20 24 18 12 9 8 8 7 8 7 7 8 10 12 12
88 84 84 82 81 76 72 68 61 49 31 20 26 22 9 2 2 9 2 15 6 2 3 9 11 10 9 9 9 11 19 18 14 9 9 8 8 8 7 8 7 17 18 17 13
92 89 87 91 89 85 79 76 70 62 44 31 38 40 28 7 8 20 15 9 3 2 10 14 13 13 11 10 9 11 13 12 10 10 8 8 8 8 8 9 18 36 42 28 22
91 89 85 92 90 89 88 82 77 72 59 47 40 40 27 13 10 15 12 12 9 5 14 14 15 13 13 15 12 11 10 12 11 12 11 9 8 9 19 48 36 35 38 34 27
99 95 98 97 97 96 95 93 88 82 71 60 46 43 28 15 12 11 15 16 12 9 14 14 17 18 20 19 16 12 14 16 15 14 13 11 11 22 46 46 38 34 29 31 32
99 100 100 100 99 99 98 94 96 94 85 68 58 46 22 19 20 17 16 13 10 11 18 17 19 19 19 20 21 19 18 17 13 15 13 13 11 18 45 46 39 35 38 37 35
99 98 100 99 95 96 100 97 99 97 91 86 70 55 36 40 24 18 16 11 11 16 17 20 20 19 18 22 18 18 19 16 13 14 13 11 44 52 48 48 45 46 44 42 40
87 86 88 99 100 99 100 100 100 95 94 90 78 58 46 43 21 16 18 16 16 18 17 20 21 20 19 19 23 26 19 22 16 15 12 11 55 52 52 48 54 50 49 46 45
62 64 88 93 92 100 100 99 100 99 95 90 76 44 49 46 32 23 18 17 20 21 20 22 23 21 24 31 31 27 30 23 16 11 11 15 63 54 55 54 61 60 58 57 52
55 56 55 68 99 99 99 100 98 92 90 84 64 54 50 46 27 24 22 18 20 21 19 22 26 38 40 36 28 30 27 18 15 12 20 62 70 60 59 60 66 64 64 65 63
28 45 53 55 58 85 100 97 90 74 82 72 60 42 26 25 21 18 20 20 22 20 26 27 42 48 40 35 26 25 20 19 17 15 26 59 71 64 61 68 71 72 72 67 65
23 35 43 45 54 74 98 94 93 84 88 74 70 69 50 30 30 20 18 20 22 28 26 30 45 32 34 32 32 28 23 24 22 18 30 63 71 62 64 72 76 76 78 74 61
40 50 51 49 54 78 95 98 87 86 77 69 57 60 61 62 58 27 19 20 25 29 32 36 25 28 33 35 35 28 26 25 22 22 32 63 76 69 63 68 73 79 80 78 77
68 61 50 67 54 80 99 97 88 70 96 70 64 53 58 54 47 54 21 20 24 30 31 36 25 25 30 34 31 34 22 22 28 31 38 32 50 74 68 72 76 85 86 88 84
100 85 68 95 77 67 81 84 68 73 66 36 58 44 48 47 30 39 36 19 26 26 33 38 33 38 38 31 26 31 28 29 30 36 38 37 46 76 71 76 84 88 91 93 97
100 99 87 96 92 88 86 77 72 86 89 51 44 42 49 43 28 21 25 19 20 22 25 29 23 25 29 26 24 28 30 44 46 51 79 43 41 76 84 81 83 87 88 90 95
88 98 94 99 89 83 72 77 90 97 43 40 42 37 38 42 40 23 26 27 28 36 35 27 27 23 23 28 27 32 42 66 77 82 64 50 50 75 89 82 85 83 82 77 86
68 100 98 97 97 83 77 84 95 61 62 41 39 35 42 35 36 35 29 33 28 32 42 42 51 30 26 35 34 39 44 62 59 84 75 50 66 82 78 78 75 75 78 79 92
75 99 97 94 90 90 76 94 76 65 46 44 32 43 43 33 38 36 40 33 28 32 42 46 44 25 26 29 26 41 51 42 59 62 76 72 79 74 78 72 73 79 73 80 86
83 98 97 91 89 99 90 76 70 49 41 44 49 43 50 42 42 52 44 35 28 25 28 33 46 31 26 24 24 44 42 60 69 76 83 86 88 91 86 80 77 90 76 79 84
99 98 93 99 91 100 94 81 57 45 40 47 59 57 55 43 41 55 42 36 30 32 26 26 45 41 25 34 34 33 43 56 62 71 77 85 88 85 85 83 84 86 75 80 82
99 94 91 93 99 91 94 68 51 50 43 49 59 59 68 62 54 45 48 37 27 28 35 36 46 45 37 27 24 27 44 55 74 71 79 85 83 78 85 81 80 77 75 81 82
95 85 96 98 92 86 72 68 62 56 51 51 50 55 46 64 84 60 42 33 29 33 45 48 70 71 58 34 34 43 47 54 64 63 75 81 78 86 84 87 88 75 79 84 82
89 99 99 100 84 70 72 72 73 61 58 52 55 51 67 79 68 66 51 39 36 45 34 40 67 60 71 56 54 57 55 55 57 74 80 81 90 99 97 99 95 88 80 81 82
100 97 84 98 97 93 66 67 71 75 59 56 60 55 58 70 79 79 63 51 48 53 52 52 72 72 54 49 58 61 44 55 55 61 63 74 91 89 90 96 82 78 84 79 80
98 98 99 98 97 97 90 78 70 65 60 71 71 61 65 77 65 72 53 58 56 51 58 61 82 74 66 48 57 63 51 52 60 70 88 88 86 78 78 80 81 80 78 81 84
100 99 99 95 98 99 95 93 78 64 68 56 61 63 63 58 55 46 39 44 49 66 77 78 88 94 90 54 63 74 74 64 69 71 81 92 79 87 79 73 78 80 80 82 85

GFSSW_850_rhum_150.txt.gz
RH
80 80 76 76 78 78 75 70 64 56 45 32 30 35 30 11 2 2 1 10 12 3 4 6 10 10 10 10 11 10 22 26 21 19 10 8 8 8 8 10 15 28 36 40 31
89 87 85 84 85 84 81 75 70 65 58 47 37 41 40 33 5 17 4 13 2 3 7 7 9 10 9 9 9 12 19 18 16 11 9 8 9 8 8 12 29 39 39 33 24
92 94 90 88 91 89 88 81 77 73 66 59 49 43 39 32 14 18 13 5 6 4 9 11 11 10 10 11 11 12 14 12 10 11 9 9 9 11 10 39 56 46 40 31 26
99 99 99 94 93 88 90 90 86 80 76 67 59 50 44 28 11 15 12 14 12 9 10 13 12 13 14 15 15 12 10 12 11 14 11 9 12 46 49 60 54 47 41 33 29
99 98 100 98 99 94 96 96 89 87 84 77 69 61 51 33 22 14 14 16 13 10 12 13 15 18 20 20 18 13 16 17 15 14 13 13 36 54 57 56 53 49 43 39 36
100 99 99 98 99 97 99 93 93 95 87 79 78 72 57 41 31 20 19 15 12 13 16 17 19 19 19 20 20 20 20 19 15 14 15 39 44 41 54 54 54 51 51 45 39
95 96 97 99 99 99 96 91 99 98 91 85 83 79 65 58 44 34 23 15 14 14 17 19 19 18 17 17 19 20 19 18 15 15 18 24 55 63 55 50 54 55 52 49 46
93 97 99 92 84 86 95 96 99 99 93 83 82 80 68 57 50 33 18 18 17 18 18 20 20 18 18 19 24 25 22 19 15 15 13 14 49 57 57 51 60 58 56 54 52
77 74 67 72 88 78 90 100 86 90 86 85 78 74 64 53 46 32 21 18 18 22 21 22 23 21 24 29 23 30 24 24 20 12 16 28 64 60 58 56 64 64 62 61 57
56 55 52 56 78 85 94 98 98 89 83 80 73 68 57 50 35 25 22 18 19 20 21 22 26 39 42 26 17 26 32 24 19 14 50 65 73 63 64 60 68 67 64 62 61
45 48 50 52 58 81 99 99 82 78 80 68 67 58 47 24 24 20 22 20 21 20 25 29 37 36 35 33 26 26 23 22 18 16 52 66 73 67 66 66 69 72 72 70 70
22 24 35 49 57 59 76 92 90 83 88 68 71 75 67 64 42 23 19 21 22 28 26 29 40 30 32 36 34 33 31 29 23 20 48 69 72 65 65 74 75 78 82 82 77
35 32 30 38 43 52 60 80 82 84 82 72 52 61 55 65 65 47 20 21 24 30 31 32 20 30 34 37 39 37 30 26 25 26 58 64 72 75 68 73 76 81 83 83 83
61 44 44 43 39 47 65 85 83 80 92 62 64 56 65 64 62 59 46 23 25 28 29 34 26 25 33 36 37 44 28 24 24 30 39 40 50 78 77 78 79 86 84 86 82
93 81 52 48 54 47 53 76 79 72 37 35 58 48 53 56 35 50 54 22 30 28 33 41 30 34 35 31 32 38 27 28 30 34 40 41 48 62 78 86 84 89 86 83 85
99 97 72 66 70 65 66 76 68 72 46 44 51 55 54 50 40 26 42 23 22 24 26 33 24 26 32 28 28 28 38 49 53 50 70 42 37 63 91 78 86 86 83 78 81
99 98 86 76 74 84 79 71 84 71 35 34 46 41 47 49 48 26 31 28 33 37 40 29 28 24 23 28 28 33 36 59 69 73 56 51 43 43 86 81 81 83 82 78 85
100 97 89 90 76 86 81 82 85 46 56 41 42 38 47 37 39 42 31 36 31 30 42 44 51 31 28 30 38 41 38 52 64 80 72 50 63 69 79 78 77 82 77 77 79
100 99 91 93 80 86 77 99 61 58 45 40 26 30 42 36 43 37 44 39 33 32 41 47 46 29 26 29 27 43 48 37 59 64 80 64 77 81 82 85 82 83 75 79 78
99 97 88 82 86 95 94 75 69 51 44 36 30 36 47 45 41 56 44 37 35 29 28 38 52 32 28 26 26 35 40 53 71 81 84 86 85 77 95 86 85 89 76 78 77
99 95 81 78 96 99 88 81 60 44 41 41 55 54 55 48 44 53 45 37 34 30 28 28 44 40 28 34 37 41 50 55 58 71 75 84 81 84 84 81 86 86 76 81 81
93 96 78 84 98 85 84 70 58 51 45 49 55 59 62 59 63 51 52 39 31 31 37 36 47 50 37 27 30 30 46 60 67 74 81 79 82 82 83 80 77 78 77 82 79
89 82 80 93 96 84 68 65 64 65 56 54 55 60 54 61 69 70 55 37 34 40 42 44 75 62 55 39 36 43 44 55 63 68 83 83 79 84 84 85 80 73 75 81 78
83 99 99 100 79 73 70 70 69 60 66 61 61 52 59 63 56 66 63 42 37 39 37 43 70 76 73 61 61 55 56 60 64 74 74 79 81 99 96 96 98 78 79 78 79
84 95 87 98 97 91 71 72 75 75 60 61 68 68 71 72 68 84 71 54 45 57 55 60 77 71 61 50 60 76 65 58 72 59 58 57 74 84 90 94 96 84 81 80 80
98 98 100 99 80 92 84 77 76 64 64 64 69 59 58 72 63 63 69 70 69 50 62 71 87 78 68 57 57 78 67 57 52 60 77 82 76 77 84 91 87 82 82 82 84
100 100 93 99 99 98 87 82 76 68 67 56 61 70 82 68 52 55 54 53 60 66 73 76 86 91 86 64 94 96 85 75 62 69 74 80 70 88 91 84 86 84 78 81 81

GFSSW_850_rhum_153.txt.gz
RH
85 85 85 83 78 75 75 74 70 65 61 56 47 41 42 39 23 7 2 10 8 4 4 6 6 9 10 12 10 10 18 24 22 20 10 9 8 10 14 25 45 48 53 41 33
95 94 95 93 89 85 79 78 75 71 67 62 57 51 44 38 25 18 7 11 3 3 9 8 9 9 10 10 10 11 15 17 15 12 10 9 9 10 14 25 43 47 44 36 29
96 98 98 100 99 92 84 78 75 74 72 68 63 56 51 43 23 16 12 7 10 9 8 10 10 10 10 11 11 12 12 12 10 12 9 9 17 29 26 42 60 56 50 36 29
99 99 100 100 99 96 89 92 85 79 77 72 67 63 59 45 24 16 12 13 13 12 11 11 11 11 15 14 16 11 11 12 13 15 11 10 31 50 54 62 63 54 45 38 32
96 99 96 99 99 99 99 95 90 84 80 76 70 65 63 55 35 18 15 15 14 11 11 13 14 16 16 18 18 14 14 16 15 16 25 22 46 52 58 61 52 48 42 39 38
93 99 100 99 97 92 97 98 84 82 84 76 69 73 71 64 49 30 19 18 14 12 13 15 17 17 19 20 17 20 20 18 16 17 32 41 49 45 58 57 51 46 48 46 46
98 98 100 93 93 88 98 97 85 90 76 72 73 73 71 59 54 48 29 18 14 14 15 18 19 18 16 17 19 22 18 16 16 17 35 36 42 55 58 56 58 59 55 52 50
95 92 89 89 94 93 90 85 89 78 80 79 77 73 67 59 58 54 30 18 18 18 17 18 20 19 19 19 23 21 21 13 15 17 27 22 35 56 58 54 60 64 65 60 58
92 84 87 82 84 73 76 75 98 97 85 82 76 73 64 57 45 39 29 19 19 21 21 21 22 22 24 19 14 24 14 22 17 22 24 22 51 57 59 56 61 67 71 71 63
60 55 58 57 55 61 76 68 88 96 90 84 79 72 55 51 33 36 25 19 19 20 21 21 26 30 31 16 15 13 22 26 20 16 29 40 60 59 62 58 64 68 72 73 67
49 49 45 47 56 64 68 99 82 83 83 62 70 61 53 32 28 20 21 21 20 20 24 32 26 24 24 28 27 25 26 22 18 20 33 46 54 56 61 63 65 70 74 78 78
34 35 37 44 50 54 57 75 86 77 79 52 62 68 54 63 61 30 21 22 23 26 26 26 29 24 27 31 31 30 32 28 23 29 28 52 52 55 59 62 66 71 78 81 73
15 18 19 26 38 44 49 66 78 82 81 61 61 65 54 56 70 62 28 21 24 29 28 31 25 29 29 33 35 35 34 29 24 35 49 49 46 59 59 67 74 82 85 81 77
15 14 17 27 33 37 42 55 76 73 72 45 59 57 66 64 59 52 54 26 26 28 29 31 26 24 29 31 30 35 30 28 24 25 29 38 30 49 59 64 67 77 82 85 88
24 28 32 36 39 42 40 57 70 73 34 35 58 54 63 61 36 41 59 26 36 29 34 48 32 34 31 25 31 33 31 29 26 29 34 35 35 39 63 66 65 73 82 83 86
84 74 50 56 50 49 51 72 67 61 33 48 56 56 61 56 46 36 38 32 24 30 29 32 27 29 29 28 25 29 36 41 44 38 43 30 30 24 64 59 65 76 81 83 83
97 97 75 77 79 60 80 69 62 43 30 38 52 49 50 52 52 29 37 32 43 44 45 32 29 23 24 28 30 29 32 41 47 49 42 42 37 26 62 67 65 74 81 82 79
99 97 85 78 90 86 76 73 43 32 45 41 40 41 52 43 43 46 33 41 31 31 36 40 46 30 26 29 30 34 31 38 51 52 42 48 44 36 68 73 79 81 80 78 75
98 96 82 77 90 92 74 95 40 39 41 39 24 27 39 38 46 40 44 37 32 31 45 42 42 29 27 27 24 36 44 28 46 58 62 46 56 71 74 74 81 79 78 80 75
99 94 78 86 90 92 86 80 65 51 45 36 14 25 33 40 38 55 43 38 37 29 28 37 46 31 28 28 27 29 31 42 60 90 72 49 59 47 88 80 77 86 82 75 77
97 89 78 84 91 94 90 77 61 49 44 40 46 34 42 42 41 48 42 37 34 30 30 31 41 38 32 36 34 38 38 43 43 48 60 55 58 80 72 73 79 81 74 76 76
89 92 70 88 96 85 82 71 62 54 46 47 50 54 60 60 58 48 46 36 34 32 36 34 45 46 41 28 26 29 35 40 57 71 62 61 72 78 73 74 76 80 74 76 77
82 91 82 94 92 85 65 60 63 63 57 54 54 56 56 58 47 64 56 42 33 39 40 39 55 66 55 42 33 36 31 41 56 55 76 91 75 78 78 78 80 82 89 83 81
78 99 96 100 86 65 69 66 71 62 65 61 58 59 56 56 55 56 51 40 41 44 42 46 53 62 71 56 55 53 39 44 56 95 91 84 83 98 95 93 87 85 92 83 79
86 91 84 95 97 92 68 67 64 71 61 65 71 64 60 65 61 62 54 60 54 49 55 56 56 59 50 47 50 51 51 49 76 83 94 74 79 81 90 89 92 78 86 83 83
98 98 94 86 72 78 75 70 76 65 63 69 69 57 63 72 66 59 58 60 58 53 60 65 63 64 66 52 63 90 58 53 61 78 94 98 69 69 78 84 94 91 88 79 80
93 96 93 87 91 82 80 75 71 66 65 59 56 62 71 75 63 62 58 55 51 59 65 71 74 93 82 65 97 96 83 74 63 56 67 75 61 84 88 82 82 86 84 84 84